�������l�o���
Date,Time,MP-1(��Sv/h),MP-2(��Sv/h),MP-3(��Sv/h),MP-4(��Sv/h),MP-5(��Sv/h),MP-6(��Sv/h),MP-7(��Sv/h),MP-8(��Sv/h),����,����(m/s),���J
2017/12/20,00:00,0.898,1.499,0.937,1.776,1.202,0.492,0.879,0.844,�k�k��,2.6,��
2017/12/20,00:10,0.898,1.499,0.937,1.771,1.202,0.493,0.880,0.845,�k�k��,2.6,��
2017/12/20,00:20,0.897,1.501,0.937,1.772,1.201,0.495,0.878,0.845,�k��,3.3,��
2017/12/20,00:30,0.896,1.500,0.936,1.773,1.200,0.493,0.880,0.846,�k�k��,2.9,��
2017/12/20,00:40,0.897,1.502,0.938,1.772,1.200,0.494,0.877,0.845,���k��,1.9,��
2017/12/20,00:50,0.896,1.502,0.937,1.775,1.199,0.495,0.878,0.844,��,1.5,��
2017/12/20,01:00,0.898,1.500,0.936,1.772,1.200,0.494,0.879,0.845,�k�k��,1.9,��
2017/12/20,01:10,0.896,1.499,0.937,1.770,1.200,0.493,0.877,0.845,�k��,2.6,��
2017/12/20,01:20,0.899,1.500,0.938,1.773,1.197,0.491,0.879,0.845,�k��,4.2,��
2017/12/20,01:30,0.897,1.500,0.936,1.773,1.200,0.492,0.879,0.846,�k�k��,3.7,��
2017/12/20,01:40,0.897,1.499,0.935,1.775,1.201,0.493,0.877,0.845,�k��,3.2,��
2017/12/20,01:50,0.897,1.499,0.936,1.771,1.200,0.493,0.878,0.846,�k��,3.2,��
2017/12/20,02:00,0.897,1.499,0.936,1.772,1.199,0.492,0.877,0.844,�k��,2.0,��
2017/12/20,02:10,0.897,1.499,0.936,1.772,1.199,0.492,0.878,0.845,���k��,1.2,��
2017/12/20,02:20,0.898,1.498,0.937,1.773,1.200,0.492,0.877,0.845,��,0.6,��
2017/12/20,02:30,0.896,1.502,0.935,1.771,1.197,0.492,0.877,0.846,�k�k��,0.9,��
2017/12/20,02:40,0.896,1.499,0.937,1.769,1.199,0.492,0.878,0.845,�k,0.9,��
2017/12/20,02:50,0.897,1.498,0.934,1.772,1.199,0.493,0.876,0.847,�k�k��,0.6,��
2017/12/20,03:00,0.897,1.500,0.935,1.771,1.200,0.492,0.877,0.844,�k,1.2,��
2017/12/20,03:10,0.898,1.498,0.935,1.771,1.200,0.492,0.878,0.845,�k,1.5,��
2017/12/20,03:20,0.899,1.500,0.935,1.771,1.198,0.494,0.879,0.845,�k,2.0,��
2017/12/20,03:30,0.896,1.500,0.935,1.772,1.200,0.493,0.878,0.845,�k�k��,2.9,��
2017/12/20,03:40,0.898,1.495,0.935,1.774,1.199,0.493,0.877,0.845,�k�k��,2.6,��
2017/12/20,03:50,0.896,1.501,0.936,1.769,1.200,0.491,0.878,0.845,�k��,2.3,��
2017/12/20,04:00,0.899,1.498,0.933,1.771,1.197,0.493,0.878,0.845,�k��,2.3,��
2017/12/20,04:10,0.896,1.497,0.935,1.770,1.199,0.492,0.878,0.845,�k�k��,2.8,��
2017/12/20,04:20,0.897,1.498,0.935,1.771,1.196,0.493,0.877,0.844,�k�k��,4.2,��
2017/12/20,04:30,0.896,1.500,0.937,1.769,1.197,0.491,0.876,0.843,�k��,3.3,��
2017/12/20,04:40,0.895,1.498,0.934,1.771,1.196,0.493,0.877,0.843,�k�k��,2.6,��
2017/12/20,04:50,0.897,1.498,0.933,1.768,1.195,0.493,0.878,0.846,�k�k��,2.3,��
2017/12/20,05:00,0.897,1.497,0.937,1.769,1.195,0.491,0.878,0.844,�k��,1.7,��
2017/12/20,05:10,0.896,1.499,0.933,1.771,1.198,0.491,0.877,0.843,�k��,2.0,��
2017/12/20,05:20,0.896,1.498,0.934,1.770,1.196,0.492,0.877,0.844,�k��,2.3,��
2017/12/20,05:30,0.896,1.500,0.934,1.774,1.197,0.490,0.877,0.846,�k��,2.3,��
2017/12/20,05:40,0.896,1.498,0.934,1.769,1.196,0.490,0.878,0.845,���k��,2.5,��
2017/12/20,05:50,0.897,1.496,0.934,1.768,1.196,0.492,0.876,0.845,�k��,2.6,��
2017/12/20,06:00,0.893,1.498,0.936,1.768,1.196,0.492,0.879,0.843,���k��,2.6,��
2017/12/20,06:10,0.896,1.496,0.933,1.772,1.197,0.491,0.878,0.845,�k��,2.2,��
2017/12/20,06:20,0.896,1.496,0.934,1.773,1.194,0.491,0.878,0.843,�k��,1.7,��
2017/12/20,06:30,0.895,1.495,0.934,1.771,1.195,0.491,0.878,0.842,�k�k��,1.7,��
2017/12/20,06:40,0.896,1.496,0.932,1.768,1.194,0.491,0.878,0.843,�k�k��,1.2,��
2017/12/20,06:50,0.895,1.495,0.934,1.768,1.195,0.490,0.878,0.843,���k��,2.6,��
2017/12/20,07:00,0.895,1.494,0.933,1.767,1.194,0.492,0.878,0.843,�k��,2.5,��
2017/12/20,07:10,0.896,1.497,0.934,1.768,1.198,0.492,0.876,0.844,���k��,3.2,��
2017/12/20,07:20,0.896,1.497,0.932,1.767,1.195,0.491,0.876,0.844,���k��,4.6,��
2017/12/20,07:30,0.897,1.495,0.935,1.770,1.196,0.492,0.876,0.844,��,5.1,��
2017/12/20,07:40,0.895,1.499,0.934,1.769,1.197,0.490,0.877,0.846,��,5.1,��
2017/12/20,07:50,0.895,1.496,0.934,1.770,1.196,0.492,0.877,0.844,���k��,6.4,��
2017/12/20,08:00,0.896,1.496,0.934,1.771,1.194,0.493,0.878,0.844,���k��,6.7,��
2017/12/20,08:10,0.896,1.499,0.935,1.769,1.198,0.492,0.880,0.845,�k��,7.4,��
2017/12/20,08:20,0.899,1.497,0.937,1.773,1.199,0.490,0.878,0.847,�k��,8.6,��
2017/12/20,08:30,0.898,1.496,0.934,1.774,1.197,0.490,0.878,0.846,�k�k��,7.8,��
2017/12/20,08:40,0.897,1.496,0.934,1.772,1.196,0.492,0.878,0.845,�k�k��,7.3,��
2017/12/20,08:50,0.899,1.498,0.932,1.775,1.199,0.491,0.879,0.846,�k�k��,4.4,��
2017/12/20,09:00,0.898,1.497,0.934,1.775,1.197,0.491,0.880,0.845,�k��,2.3,��
2017/12/20,09:10,0.899,1.496,0.935,1.772,1.196,0.494,0.881,0.847,�k��,2.8,��
2017/12/20,09:20,0.899,1.499,0.937,1.774,1.197,0.493,0.880,0.844,�k�k��,3.3,��
2017/12/20,09:30,0.897,1.493,0.938,1.774,1.199,0.491,0.882,0.846,�k�k��,5.3,��
2017/12/20,09:40,0.902,1.493,0.937,1.771,1.197,0.491,0.880,0.846,�k,5.0,��
2017/12/20,09:50,0.901,1.494,0.937,1.773,1.200,0.493,0.880,0.845,�k,4.4,��
2017/12/20,10:00,0.900,1.494,0.937,1.773,1.197,0.494,0.881,0.846,�k�k��,3.4,��
2017/12/20,10:10,0.899,1.496,0.937,1.772,1.198,0.491,0.879,0.846,�k,3.8,��
2017/12/20,10:20,0.903,1.498,0.937,1.775,1.197,0.494,0.879,0.845,�k�k��,4.6,��
2017/12/20,10:30,0.901,1.494,0.938,1.774,1.199,0.494,0.879,0.847,�k,5.0,��
2017/12/20,10:40,0.901,1.494,0.940,1.775,1.201,0.494,0.881,0.848,�k�k��,4.1,��
2017/12/20,10:50,0.901,1.484,0.937,1.776,1.200,0.494,0.880,0.847,�k�k��,3.6,��
2017/12/20,11:00,0.901,1.487,0.937,1.779,1.202,0.495,0.879,0.847,��,4.0,��
2017/12/20,11:10,0.903,1.489,0.939,1.777,1.200,0.495,0.878,0.847,��,5.3,��
2017/12/20,11:20,0.902,1.485,0.940,1.777,1.200,0.495,0.881,0.847,��,6.0,��
2017/12/20,11:30,0.902,1.482,0.940,1.774,1.202,0.493,0.881,0.847,��,6.8,��
2017/12/20,11:40,0.903,1.488,0.940,1.776,1.202,0.493,0.880,0.848,��,6.0,��
2017/12/20,11:50,0.903,1.496,0.938,1.779,1.203,0.494,0.881,0.847,��,5.6,��
2017/12/20,12:00,0.905,1.489,0.940,1.779,1.203,0.494,0.882,0.848,���k��,5.2,��
2017/12/20,12:10,0.904,1.494,0.939,1.779,1.202,0.492,0.882,0.849,���k��,5.2,��
2017/12/20,12:20,0.904,1.495,0.940,1.778,1.204,0.495,0.885,0.848,���쐼,5.4,��
2017/12/20,12:30,0.903,1.491,0.942,1.779,1.204,0.495,0.884,0.850,��,5.1,��
2017/12/20,12:40,0.904,1.491,0.940,1.777,1.202,0.494,0.882,0.851,���쐼,6.0,��
2017/12/20,12:50,0.906,1.487,0.939,1.776,1.206,0.496,0.885,0.845,��,7.5,��
2017/12/20,13:00,0.904,1.484,0.941,1.779,1.204,0.496,0.885,0.847,��,6.9,��
2017/12/20,13:10,0.903,1.473,0.940,1.775,1.203,0.497,0.885,0.847,���쐼,6.3,��
2017/12/20,13:20,0.903,1.499,0.941,1.780,1.205,0.495,0.882,0.847,���쐼,5.3,��
2017/12/20,13:30,0.903,1.494,0.940,1.778,1.203,0.496,0.882,0.848,��,2.6,��
2017/12/20,13:40,0.905,1.494,0.943,1.778,1.205,0.496,0.883,0.846,��쐼,3.8,��
2017/12/20,13:50,0.904,1.495,0.940,1.776,1.203,0.496,0.883,0.844,��,5.1,��
2017/12/20,14:00,0.905,1.493,0.943,1.780,1.206,0.495,0.883,0.845,��쓌,8.1,��
2017/12/20,14:10,0.904,1.494,0.941,1.779,1.205,0.495,0.885,0.846,��쓌,6.7,��
2017/12/20,14:20,0.904,1.498,0.941,1.779,1.203,0.496,0.884,0.848,��,5.6,��
2017/12/20,14:30,0.905,1.496,0.939,1.780,1.206,0.495,0.884,0.848,��쓌,6.7,��
2017/12/20,14:40,0.908,1.499,0.940,1.777,1.204,0.496,0.882,0.846,��쓌,6.2,��
2017/12/20,14:50,0.905,1.499,0.939,1.782,1.207,0.496,0.884,0.845,��쓌,6.6,��
2017/12/20,15:00,0.906,1.499,0.943,1.779,1.205,0.495,0.885,0.846,��쓌,6.5,��
2017/12/20,15:10,0.905,1.505,0.940,1.778,1.208,0.496,0.882,0.847,��쓌,4.9,��
2017/12/20,15:20,0.904,1.502,0.943,1.779,1.206,0.496,0.882,0.846,��쓌,6.7,��
2017/12/20,15:30,0.906,1.503,0.943,1.780,1.205,0.497,0.883,0.846,��쓌,6.6,��
2017/12/20,15:40,0.904,1.503,0.942,1.781,1.203,0.496,0.882,0.845,��쓌,5.8,��
2017/12/20,15:50,0.906,1.505,0.941,1.778,1.204,0.497,0.885,0.846,��쓌,5.6,��
2017/12/20,16:00,0.903,1.504,0.943,1.780,1.206,0.496,0.882,0.844,�쓌,5.3,��
2017/12/20,16:10,0.903,1.503,0.941,1.775,1.205,0.495,0.885,0.846,�쓌,5.3,��
2017/12/20,16:20,0.904,1.504,0.943,1.779,1.204,0.498,0.882,0.847,�쓌,4.7,��
2017/12/20,16:30,0.903,1.504,0.942,1.778,1.205,0.495,0.884,0.847,��쓌,5.4,��
2017/12/20,16:40,0.903,1.506,0.941,1.778,1.205,0.496,0.883,0.846,�쓌,4.8,��
2017/12/20,16:50,0.903,1.504,0.941,1.776,1.201,0.497,0.883,0.847,��쓌,3.9,��
2017/12/20,17:00,0.903,1.505,0.941,1.774,1.203,0.495,0.883,0.846,��쐼,3.6,��
2017/12/20,17:10,0.903,1.505,0.940,1.773,1.205,0.496,0.880,0.846,��쐼,4.0,��
2017/12/20,17:20,0.901,1.506,0.942,1.773,1.203,0.496,0.881,0.846,��쐼,4.1,��
2017/12/20,17:30,0.901,1.504,0.939,1.774,1.204,0.494,0.881,0.846,��쐼,3.6,��
2017/12/20,17:40,0.902,1.505,0.938,1.776,1.203,0.495,0.878,0.845,�쐼,3.2,��
2017/12/20,17:50,0.895,1.506,0.941,1.775,1.202,0.494,0.880,0.845,�쐼,3.5,��
2017/12/20,18:00,0.898,1.505,0.940,1.776,1.202,0.494,0.880,0.847,��쐼,4.1,��
2017/12/20,18:10,0.899,1.505,0.939,1.776,1.203,0.494,0.881,0.846,��쐼,5.1,��
2017/12/20,18:20,0.899,1.505,0.938,1.773,1.203,0.492,0.881,0.845,��쐼,5.4,��
2017/12/20,18:30,0.899,1.502,0.938,1.775,1.205,0.494,0.880,0.846,��쐼,4.9,��
2017/12/20,18:40,0.900,1.506,0.940,1.774,1.203,0.493,0.879,0.844,��쐼,4.9,��
2017/12/20,18:50,0.902,1.504,0.939,1.776,1.201,0.495,0.878,0.846,��쐼,5.6,��
2017/12/20,19:00,0.901,1.505,0.939,1.775,1.203,0.495,0.879,0.845,��쐼,5.9,��
2017/12/20,19:10,0.901,1.501,0.938,1.775,1.200,0.495,0.880,0.845,��쐼,6.5,��
2017/12/20,19:20,0.901,1.502,0.940,1.774,1.201,0.496,0.879,0.845,��쐼,6.3,��
2017/12/20,19:30,0.900,1.504,0.939,1.775,1.201,0.493,0.881,0.843,��쐼,6.0,��
2017/12/20,19:40,0.901,1.504,0.939,1.775,1.201,0.496,0.881,0.843,�쐼,5.2,��
2017/12/20,19:50,0.901,1.502,0.940,1.776,1.203,0.494,0.879,0.844,�쐼,5.5,��
2017/12/20,20:00,0.900,1.500,0.940,1.774,1.199,0.492,0.880,0.844,�쐼,5.6,��
2017/12/20,20:10,0.899,1.504,0.940,1.775,1.200,0.493,0.880,0.843,�쐼,4.9,��
2017/12/20,20:20,0.898,1.502,0.939,1.772,1.202,0.495,0.880,0.844,�쐼,5.2,��
2017/12/20,20:30,0.900,1.503,0.940,1.774,1.199,0.496,0.879,0.843,�쐼,5.2,��
2017/12/20,20:40,0.901,1.503,0.940,1.773,1.201,0.493,0.879,0.846,���쐼,4.8,��
2017/12/20,20:50,0.899,1.502,0.939,1.775,1.200,0.494,0.879,0.845,���쐼,2.8,��
2017/12/20,21:00,0.901,1.502,0.936,1.772,1.203,0.492,0.880,0.845,�쐼,2.5,��
2017/12/20,21:10,0.899,1.500,0.938,1.774,1.203,0.494,0.879,0.847,��쐼,1.7,��
2017/12/20,21:20,0.898,1.500,0.937,1.773,1.201,0.494,0.878,0.844,�쐼,2.0,��
2017/12/20,21:30,0.899,1.502,0.940,1.775,1.201,0.494,0.880,0.844,�쐼,2.0,��
2017/12/20,21:40,0.900,1.501,0.939,1.773,1.201,0.495,0.880,0.843,�쐼,2.0,��
2017/12/20,21:50,0.899,1.498,0.938,1.772,1.203,0.495,0.879,0.844,���쐼,2.0,��
2017/12/20,22:00,0.900,1.501,0.939,1.770,1.200,0.495,0.879,0.844,���쐼,2.0,��
2017/12/20,22:10,0.900,1.501,0.938,1.773,1.203,0.494,0.880,0.846,���쐼,2.2,��
2017/12/20,22:20,0.897,1.503,0.939,1.772,1.202,0.493,0.880,0.845,��,1.5,��
2017/12/20,22:30,0.900,1.501,0.938,1.771,1.201,0.494,0.879,0.844,��,1.7,��
2017/12/20,22:40,0.901,1.499,0.939,1.770,1.202,0.495,0.879,0.847,���k��,1.7,��
2017/12/20,22:50,0.899,1.500,0.940,1.774,1.202,0.493,0.880,0.844,���k��,1.2,��
2017/12/20,23:00,0.897,1.502,0.937,1.776,1.201,0.494,0.878,0.843,�k��,1.2,��
2017/12/20,23:10,0.897,1.500,0.940,1.773,1.202,0.495,0.879,0.845,�k��,1.5,��
2017/12/20,23:20,0.898,1.500,0.939,1.774,1.201,0.492,0.879,0.845,�k��,1.9,��
2017/12/20,23:30,0.902,1.501,0.939,1.774,1.200,0.494,0.880,0.846,�k��,4.4,��
2017/12/20,23:40,0.897,1.501,0.940,1.773,1.200,0.492,0.880,0.846,�k��,7.2,��
2017/12/20,23:50,0.900,1.504,0.942,1.773,1.199,0.493,0.878,0.843,�k��,7.3,��
